Regional Weather Roundup
Issued by NWS

Home | Current Version | Previous Version | Graphics & Text | Print | Product List | Glossary On
Versions: 1 2 3 4 5 6 7 8 9 10 11 12 13 14 15 16 17 18 19 20 21 22 23 24 25 26 27
000
ASUS45 KBOU 270407
RWRCO

WEATHER ROUNDUP FOR COLORADO
NATIONAL WEATHER SERVICE DENVER/BOULDER CO
1000 PM MDT WED APR 26 2017

NOTE: "FAIR" INDICATES FEW OR NO CLOUDS BELOW 12000 FEET WITH NO
SIGNIFICANT WEATHER AND/OR OBSTRUCTIONS TO VISIBILITY.

COZ001>005-013-030-031-270500-
...NORTHWEST COLORADO...

CITY           SKY/WX    TMP DP  RH WIND       PRES   REMARKS
CRAIG          LGT RAIN  44  31  60 SW17G23   29.75R
HAYDEN         CLOUDY    39  28  65 CALM      29.76S
MEEKER         CLOUDY    44  35  70 CALM      29.75F
MOUNT WERNER   NOT AVBL
STEAMBOAT SPGS CLOUDY    36  34  92 E8        29.76F
WALDEN           N/A     32  30  93 SW5       29.78F WCI  27
$$

COZ006>008-011-270500-
...WEST CENTRAL VALLEYS...

CITY           SKY/WX    TMP DP  RH WIND       PRES   REMARKS
GRAND JUNCTION CLOUDY    54  29  38 S6        29.74S
MONTROSE       CLOUDY    48  31  51 SW14      29.82R
EAGLE          CLOUDY    42  31  64 S3        29.80S
RIFLE          MOCLDY    47  34  60 E7        29.75F
DELTA          CLOUDY    55  26  32 SW6       29.78R
NUCLA          MOCLDY    46  28  49 E12       29.80F
$$

COZ017>023-064>068-270500-
...SOUTHWEST COLORADO...

CITY           SKY/WX    TMP DP  RH WIND       PRES   REMARKS
DURANGO        CLOUDY    48  23  37 NW25G37   29.83R
CORTEZ         CLOUDY    52  28  39 E9        29.77F
PAGOSA SPRINGS CLOUDY    47  16  29 W9G22     29.86R
TELLURIDE      CLOUDY    39  20  47 SW6       29.90S
WOLF CREEK PAS CLOUDY    23  19  86 SW13      29.98R WCI  11
$$

COZ009-010-012-014-032>034-037-058>063-270500-
...CENTRAL COLORADO...

CITY           SKY/WX    TMP DP  RH WIND       PRES   REMARKS
ASPEN          CLOUDY    38  30  73 S5        29.81S
BUENA VISTA    FAIR      40  18  40 CALM      29.80S
COPPER MTN     FLURRIES  25  19  80 MISG      29.87S
BERTHOUD PASS  CLOUDY    18   5  57 NW30G40   29.81F WCI  -2
COTTONWOOD PAS FAIR      36  19  51 W10G16    29.84S
GUNNISON       FAIR      40  25  55 CALM      29.83R
KREMMLING      FAIR      39  36  87 E5        29.79F
LEADVILLE      FAIR      29  20  69 N10       29.82F WCI  20
MONARCH PASS   FAIR      23  18  80 W32G41    29.97R WCI   5
SALIDA         MOCLDY    44  19  37 SW8       29.86S
SUNLIGHT       LGT SNOW  27  21  80 SW12G21   29.89F WCI  16
WILKERSON PASS FAIR      27  14  59 W5        29.89S WCI  21
$$

COZ069>075-270500-
...SAN LUIS VALLEY/SANGRE DE CRISTO MOUNTAINS...

CITY           SKY/WX    TMP DP  RH WIND       PRES   REMARKS
ALAMOSA        FAIR      45  23  42 NW3       29.81R
LA VETA PASS   CLOUDY    32  27  80 SW16G33   29.97R WCI  21
SAGUACHE       CLOUDY    43  21  42 NW7       29.83S
$$

COZ035-036-038>040-270500-
...NORTHERN COLORADO FRONT RANGE...

CITY           SKY/WX    TMP DP  RH WIND       PRES   REMARKS
DENVER INTL AP MOCLDY    42  31  64 E6        29.71R
DMNS CITY PARK   N/A     47  33  57 E10       29.71F
AURORA         MOCLDY    46  31  54 SE7       29.72S
FRONT RANGE AP NOT AVBL
ERIE MUNI ARPT FAIR      49  32  52 E8        29.71S
BOULDER MUN AP FAIR      48  32  53 SW7       29.71F
CENTENNIAL     MOCLDY    43  33  68 S13       29.72S
BROOMFIELD     MOCLDY    50  27  40 SW8G18    29.72
FORT COLLINS   FAIR      46  36  68 E7        29.72S
LONGMONT       FAIR      51  32  47 SW7       29.72S
$$

COZ041-046-047-076>085-087-088-270500-
...PIKES PEAK/PALMER DIVIDE AND SOUTHERN FOOTHILLS...

CITY           SKY/WX    TMP DP  RH WIND       PRES   REMARKS
COLO. SPRINGS  FAIR      44  34  67 E10       29.77R
A. F. ACADEMY  FAIR      40  32  74 NW3       29.76R
SCHRIEVER AFB  MOCLDY    39  34  80 E5        29.78R
ELLICOTT       FAIR     N/A N/A N/A E7        29.77R
FALCON         FAIR      36  33  88 E3        29.78S
FORT CARSON    CLOUDY    46  34  62 S7        29.76R
LIMON          FAIR      41  35  79 SW7       29.75R
MONUMENT HILL  FAIR      32  32 100 SE6       29.79F WCI  26
TRINIDAD       CLOUDY    45  37  73 E6        29.75R
$$

COZ042>045-048>051-090-091-270500-
...NORTHEAST COLORADO...

CITY           SKY/WX    TMP DP  RH WIND       PRES   REMARKS
GREELEY ARPT   FAIR      45  38  76 E8        29.73S
AKRON          FAIR      44  34  67 CALM      29.72S
BURLINGTON     NOT AVBL
WRAY           NOT AVBL
STERLING       CLOUDY    45  41  87 NE7       29.71R
HOLYOKE        CLOUDY    46  37  71 NE8       29.72S
FORT MORGAN    CLOUDY    45  36  70 S5        29.73S
$$

COZ086-089-092>099-270500-
...SOUTHEAST COLORADO...

CITY           SKY/WX    TMP DP  RH WIND       PRES   REMARKS
PUEBLO         FAIR      49  36  61 CALM      29.73S
LA JUNTA       CLOUDY    52  36  54 S15       29.72S
LAMAR          FAIR      49  35  58 S10       29.71S
SPRINGFIELD      N/A     42  37  82 SW3       29.75F
$$




USA.gov is the U.S. government's official web portal to all federal, state and local government web resources and services.